This is the latest recevied weather packets stored in our database for station/object DB0LHR-6. If no packets are shown the sender has not sent any weather packets the latest 10 day(s).
| Time | Temp. | Humidity | Pressure | Rain* | Wind** | Luminosity | Snow |
|---|---|---|---|---|---|---|---|
| 1778152576 | 16.11° C | 61% | 1015 hPa | 0 mm | - | - | - |
| 1778151676 | 15.56° C | 62% | 1015 hPa | 0 mm | - | - | - |
| 1778150776 | 15° C | 63% | 1015 hPa | 0 mm | - | - | - |
| 1778149876 | 14.44° C | 68% | 1015 hPa | 0 mm | - | - | - |
| 1778148976 | 14.44° C | 71% | 1015 hPa | 0 mm | - | - | - |
| 1778148076 | 14.44° C | 78% | 1015 hPa | 0 mm | - | - | - |
| 1778147176 | 13.33° C | 87% | 1015 hPa | 0 mm | - | - | - |
| 1778146276 | 13.33° C | 95% | 1015 hPa | 0 mm | - | - | - |
| 1778145376 | 12.78° C | 97% | 1015 hPa | 0 mm | - | - | - |
| 1778144476 | 12.22° C | 97% | 1014 hPa | 0 mm | - | - | - |
| 1778143576 | 12.22° C | 97% | 1014 hPa | 0 mm | - | - | - |
| 1778142676 | 12.22° C | 97% | 1014 hPa | 0 mm | - | - | - |
| 1778141776 | 11.67° C | 97% | 1014 hPa | 0 mm | - | - | - |
| 1778140876 | 11.67° C | 97% | 1014 hPa | 0 mm | - | - | - |
| 1778139976 | 11.11° C | 97% | 1014 hPa | 0 mm | - | - | - |
| 1778139076 | 10.56° C | 97% | 1014 hPa | 0 mm | - | - | - |
| 1778138176 | 10.56° C | 97% | 1014 hPa | 0 mm | - | - | - |
| 1778137276 | 10.56° C | 97% | 1014 hPa | 0 mm | - | - | - |
| 1778136376 | 10.56° C | 97% | 1014 hPa | 0 mm | - | - | - |
| 1778135476 | 10° C | 97% | 1014 hPa | 0 mm | - | - | - |
| 1778134576 | 10° C | 97% | 1013 hPa | 0 mm | - | - | - |
| 1778133676 | 10° C | 97% | 1013 hPa | 0 mm | - | - | - |
| 1778132776 | 10° C | 97% | 1013 hPa | 0 mm | - | - | - |
| 1778131876 | 10° C | 97% | 1013 hPa | 0 mm | - | - | - |
| 1778130976 | 10° C | 97% | 1013 hPa | 0 mm | - | - | - |
* Rain latest 24 hours (hover to see other rain measurements)
** Current wind speed in m/s (hover to see current wind gust speed)